When you browse on this site, cookies collect data to enhance your experience and personalize the content and advertising you see.
Visit our Privacy Policy to learn more. By continuing to use the site, you agree to this use of cookies and data.
  • In Österreich
  • Länderverzeichnis
  • Für 7 Tage
  • Wassertemperatur
  • Wetterkarte
  • News
  • Widgets
  • user-avatar
    Anmelden

    Stündliche Wetter Kodyakovka

    Heute, 22 November, Freitag

    Zeit Temperatur Niederschläge Wind Luftdruck Luftfeuchtigkeit
    00:00 -15°C° 0 mm 3 m/S 772 mmHg 75%
    01:00 -14°C° 0 mm 2 m/S 772 mmHg 74%
    02:00 -14°C° 0 mm 2 m/S 772 mmHg 73%
    03:00 -15°C° 0 mm 3 m/S 771 mmHg 72%
    04:00 -16°C° 0 mm 3 m/S 772 mmHg 76%
    05:00 -15°C° 0 mm 2 m/S 771 mmHg 77%
    06:00 -15°C° 0 mm 2 m/S 771 mmHg 79%
    07:00 -15°C° 0 mm 2 m/S 770 mmHg 80%
    08:00 -14°C° 0 mm 2 m/S 770 mmHg 79%
    09:00 -14°C° 0 mm 2 m/S 770 mmHg 79%
    10:00 -14°C° 0 mm 3 m/S 770 mmHg 77%
    11:00 -13°C° 0 mm 3 m/S 770 mmHg 76%
    12:00 -12°C° 0 mm 3 m/S 770 mmHg 76%
    13:00 -11°C° 0 mm 4 m/S 769 mmHg 75%
    14:00 -12°C° 0 mm 3 m/S 769 mmHg 78%
    15:00 -12°C° 0 mm 3 m/S 769 mmHg 80%
    16:00 -12°C° 0 mm 3 m/S 769 mmHg 83%
    17:00 -13°C° 0 mm 3 m/S 769 mmHg 83%
    18:00 -13°C° 0 mm 3 m/S 768 mmHg 84%
    19:00 -13°C° 0 mm 3 m/S 768 mmHg 84%
    20:00 -12°C° 0 mm 2 m/S 768 mmHg 85%
    21:00 -12°C° 0 mm 2 m/S 768 mmHg 86%
    22:00 -12°C° 0 mm 2 m/S 768 mmHg 87%
    23:00 -12°C° 0 mm 2 m/S 768 mmHg 89%

    Morgen, 23 November, Samstag

    Zeit Temperatur Niederschläge Wind Luftdruck Luftfeuchtigkeit
    00:00 -12°C° 0 mm 2 m/S 767 mmHg 90%
    01:00 -12°C° 0 mm 2 m/S 767 mmHg 91%
    02:00 -12°C° 0 mm 2 m/S 767 mmHg 92%
    03:00 -12°C° 0 mm 2 m/S 767 mmHg 93%
    04:00 -12°C° 0 mm 2 m/S 768 mmHg 93%
    05:00 -12°C° 0 mm 2 m/S 767 mmHg 94%
    06:00 -12°C° 0 mm 2 m/S 767 mmHg 94%
    07:00 -12°C° 0 mm 2 m/S 766 mmHg 94%
    08:00 -10°C° 0 mm 2 m/S 766 mmHg 92%
    09:00 -10°C° 0 mm 2 m/S 766 mmHg 91%
    10:00 -9°C° 0 mm 2 m/S 767 mmHg 89%
    11:00 -8°C° 0 mm 2 m/S 766 mmHg 86%
    12:00 -8°C° 0 mm 2 m/S 766 mmHg 83%
    13:00 -7°C° 0 mm 2 m/S 765 mmHg 81%
    14:00 -8°C° 0 mm 2 m/S 765 mmHg 80%
    15:00 -8°C° 0 mm 2 m/S 765 mmHg 80%
    16:00 -9°C° 0 mm 2 m/S 765 mmHg 80%
    17:00 -12°C° 0 mm 3 m/S 765 mmHg 79%
    18:00 -12°C° 0 mm 3 m/S 764 mmHg 79%
    19:00 -12°C° 0 mm 3 m/S 764 mmHg 78%
    20:00 -13°C° 0 mm 3 m/S 764 mmHg 78%
    21:00 -13°C° 0 mm 3 m/S 764 mmHg 79%
    22:00 -13°C° 0 mm 3 m/S 764 mmHg 79%
    23:00 -13°C° 0 mm 3 m/S 764 mmHg 81%

    übermorgen, 24 November, Sonntag

    Zeit Temperatur Niederschläge Wind Luftdruck Luftfeuchtigkeit
    00:00 -14°C° 0 mm 3 m/S 764 mmHg 83%
    01:00 -14°C° 0 mm 3 m/S 764 mmHg 84%
    02:00 -14°C° 0 mm 3 m/S 764 mmHg 86%
    03:00 -13°C° 0 mm 2 m/S 764 mmHg 87%
    04:00 -13°C° 0 mm 2 m/S 764 mmHg 89%
    05:00 -13°C° 0 mm 2 m/S 764 mmHg 90%
    06:00 -13°C° 0 mm 2 m/S 764 mmHg 91%
    07:00 -13°C° 0 mm 2 m/S 763 mmHg 93%
    08:00 -12°C° 0 mm 2 m/S 764 mmHg 92%
    09:00 -12°C° 0 mm 2 m/S 764 mmHg 92%
    10:00 -10°C° 0 mm 2 m/S 764 mmHg 92%
    11:00 -9°C° 0 mm 2 m/S 764 mmHg 91%
    12:00 -8°C° 0 mm 2 m/S 764 mmHg 90%
    13:00 -8°C° 0 mm 2 m/S 763 mmHg 89%
    14:00 -8°C° 0 mm 2 m/S 763 mmHg 90%
    15:00 -9°C° 0 mm 2 m/S 763 mmHg 92%
    16:00 -9°C° 0 mm 2 m/S 763 mmHg 94%
    17:00 -9°C° 0 mm 2 m/S 763 mmHg 94%
    18:00 -10°C° 0 mm 2 m/S 763 mmHg 94%
    19:00 -10°C° 0 mm 2 m/S 763 mmHg 95%
    20:00 -10°C° 0 mm 2 m/S 763 mmHg 95%
    21:00 -10°C° 0 mm 2 m/S 763 mmHg 95%
    22:00 -12°C° 0 mm 2 m/S 763 mmHg 95%
    23:00 -10°C° 0 mm 1 m/S 763 mmHg 95%

    25 November, Montag

    Zeit Temperatur Niederschläge Wind Luftdruck Luftfeuchtigkeit
    00:00 -10°C° 0 mm 1 m/S 763 mmHg 95%
    01:00 -10°C° 0 mm 1 m/S 763 mmHg 95%
    02:00 -10°C° 0 mm 1 m/S 763 mmHg 95%
    03:00 -10°C° 0 mm 1 m/S 763 mmHg 95%
    04:00 -9°C° 0 mm 1 m/S 763 mmHg 95%
    05:00 -10°C° 0 mm 1 m/S 763 mmHg 95%
    06:00 -10°C° 0 mm 1 m/S 763 mmHg 95%
    07:00 -10°C° 0 mm 1 m/S 763 mmHg 95%
    08:00 -9°C° 0 mm 1 m/S 763 mmHg 94%
    09:00 -9°C° 0 mm 1 m/S 763 mmHg 93%
    10:00 -8°C° 0 mm 1 m/S 763 mmHg 93%
    11:00 -8°C° 0 mm 1 m/S 763 mmHg 91%
    12:00 -7°C° 0 mm 1 m/S 763 mmHg 89%
    13:00 -6°C° 0 mm 1 m/S 763 mmHg 87%
    14:00 -7°C° 0 mm 1 m/S 762 mmHg 89%
    15:00 -8°C° 0 mm 1 m/S 762 mmHg 91%
    16:00 -8°C° 0 mm 1 m/S 762 mmHg 93%
    17:00 -9°C° 0 mm 1 m/S 762 mmHg 93%
    18:00 -9°C° 0 mm 1 m/S 762 mmHg 93%
    19:00 -9°C° 0 mm 1 m/S 762 mmHg 94%
    20:00 -9°C° 0 mm 1 m/S 762 mmHg 94%
    21:00 -10°C° 0 mm 0 m/S 762 mmHg 94%
    22:00 -10°C° 0 mm 0 m/S 762 mmHg 94%
    23:00 -10°C° 0 mm 0 m/S 762 mmHg 94%

    26 November, Dienstag

    Zeit Temperatur Niederschläge Wind Luftdruck Luftfeuchtigkeit
    00:00 -10°C° 0 mm 0 m/S 762 mmHg 94%
    01:00 -10°C° 0 mm 0 m/S 762 mmHg 94%
    02:00 -10°C° 0 mm 0 m/S 762 mmHg 94%
    03:00 -10°C° 0 mm 1 m/S 762 mmHg 94%
    04:00 -9°C° 0 mm 1 m/S 762 mmHg 94%
    05:00 -10°C° 0 mm 1 m/S 761 mmHg 94%
    06:00 -10°C° 0 mm 1 m/S 761 mmHg 94%
    07:00 -10°C° 0 mm 1 m/S 761 mmHg 94%
    08:00 -10°C° 0 mm 1 m/S 761 mmHg 93%
    09:00 -9°C° 0 mm 1 m/S 762 mmHg 92%
    10:00 -9°C° 0 mm 1 m/S 762 mmHg 91%
    11:00 -9°C° 0 mm 2 m/S 762 mmHg 87%
    12:00 -8°C° 0 mm 2 m/S 762 mmHg 82%
    13:00 -7°C° 0 mm 2 m/S 761 mmHg 78%
    14:00 -7°C° 0 mm 2 m/S 761 mmHg 78%
    15:00 -8°C° 0 mm 2 m/S 761 mmHg 77%
    16:00 -8°C° 0 mm 2 m/S 761 mmHg 77%
    17:00 -9°C° 0 mm 2 m/S 761 mmHg 76%
    18:00 -9°C° 0 mm 2 m/S 761 mmHg 76%
    19:00 -10°C° 0 mm 2 m/S 761 mmHg 75%
    20:00 -10°C° 0 mm 2 m/S 761 mmHg 75%
    21:00 -10°C° 0 mm 2 m/S 761 mmHg 74%
    22:00 -10°C° 0 mm 2 m/S 761 mmHg 74%
    23:00 -10°C° 0 mm 2 m/S 761 mmHg 75%

    27 November, Mittwoch

    Zeit Temperatur Niederschläge Wind Luftdruck Luftfeuchtigkeit
    00:00 -10°C° 0 mm 2 m/S 761 mmHg 76%
    01:00 -10°C° 0 mm 2 m/S 761 mmHg 77%
    02:00 -12°C° 0 mm 2 m/S 761 mmHg 79%
    03:00 -13°C° 0 mm 3 m/S 761 mmHg 81%
    04:00 -13°C° 0 mm 3 m/S 761 mmHg 83%
    05:00 -12°C° 0 mm 2 m/S 761 mmHg 84%
    06:00 -12°C° 0 mm 2 m/S 761 mmHg 86%
    07:00 -12°C° 0 mm 2 m/S 761 mmHg 87%
    08:00 -10°C° 0 mm 2 m/S 761 mmHg 87%
    09:00 -10°C° 0 mm 2 m/S 761 mmHg 87%
    10:00 -10°C° 0 mm 2 m/S 761 mmHg 87%
    11:00 -9°C° 0 mm 2 m/S 761 mmHg 86%
    12:00 -8°C° 0 mm 2 m/S 761 mmHg 85%
    13:00 -8°C° 0 mm 3 m/S 761 mmHg 83%
    14:00 -7°C° 0 mm 2 m/S 761 mmHg 85%
    15:00 -8°C° 0 mm 2 m/S 761 mmHg 86%
    16:00 -8°C° 0 mm 2 m/S 761 mmHg 88%
    17:00 -9°C° 0 mm 2 m/S 761 mmHg 88%
    18:00 -9°C° 0 mm 2 m/S 761 mmHg 89%
    19:00 -9°C° 0 mm 2 m/S 762 mmHg 89%
    20:00 -9°C° 0 mm 2 m/S 762 mmHg 89%
    21:00 -9°C° 0 mm 2 m/S 762 mmHg 90%
    22:00 -10°C° 0 mm 2 m/S 762 mmHg 90%
    23:00 -10°C° 0 mm 2 m/S 762 mmHg 90%
    Mehr zeigen